When you browse on this site, cookies collect data to enhance your experience and personalize the content and advertising you see.
Visit our Privacy Policy to learn more. By continuing to use the site, you agree to this use of cookies and data.
  • In Latvia
  • List of Countries
  • For 7 days
  • Water Temperature
  • Weather Map
  • Weather Widgets
  • user-avatar
    Login

    Hourly Weather Kurzeszynek

    Today, 19 February, Wednesday

    Time Temperature Precipitation Wind Pressure Humidity
    00:00 +2°C° 0 mm 5 mps 753 mmHg 73%
    01:00 +2°C° 0 mm 5 mps 753 mmHg 73%
    02:00 +1°C° 0 mm 5 mps 752 mmHg 75%
    03:00 +1°C° 0 mm 5 mps 752 mmHg 78%
    04:00 +1°C° 0 mm 5 mps 752 mmHg 80%
    05:00 +1°C° 0 mm 5 mps 751 mmHg 82%
    06:00 0°C° 0 mm 5 mps 751 mmHg 83%
    07:00 0°C° 0 mm 5 mps 751 mmHg 85%
    08:00 +1°C° 0 mm 5 mps 750 mmHg 81%
    09:00 +2°C° 0 mm 6 mps 750 mmHg 76%
    10:00 +3°C° 0 mm 6 mps 750 mmHg 72%
    11:00 +4°C° 0 mm 6 mps 749 mmHg 68%
    12:00 +5°C° 0 mm 6 mps 749 mmHg 64%
    13:00 +5°C° 0 mm 6 mps 748 mmHg 60%
    14:00 +5°C° 0 mm 6 mps 748 mmHg 60%
    15:00 +6°C° 0 mm 5 mps 747 mmHg 60%
    16:00 +6°C° 0 mm 5 mps 747 mmHg 60%
    17:00 +6°C° 0.2 mm 5 mps 747 mmHg 70%
    18:00 +4°C° 0.2 mm 6 mps 747 mmHg 79%
    19:00 +3°C° 0.2 mm 6 mps 747 mmHg 89%
    20:00 +3°C° 0.3 mm 6 mps 748 mmHg 85%
    21:00 +3°C° 0.3 mm 6 mps 748 mmHg 80%
    22:00 +3°C° 0.3 mm 5 mps 748 mmHg 76%
    23:00 +2°C° 0 mm 5 mps 749 mmHg 78%

    Tomorrow, 20 February, Thursday

    Time Temperature Precipitation Wind Pressure Humidity
    00:00 +2°C° 0 mm 5 mps 749 mmHg 80%
    01:00 +1°C° 0 mm 5 mps 750 mmHg 81%
    02:00 +1°C° 0.3 mm 5 mps 750 mmHg 85%
    03:00 +1°C° 0.3 mm 5 mps 750 mmHg 88%
    04:00 +1°C° 0.3 mm 5 mps 750 mmHg 91%
    05:00 +1°C° 0.3 mm 5 mps 751 mmHg 91%
    06:00 +1°C° 0.3 mm 5 mps 751 mmHg 91%
    07:00 +1°C° 0.3 mm 5 mps 752 mmHg 91%
    08:00 +1°C° 0.1 mm 5 mps 752 mmHg 88%
    09:00 +1°C° 0.1 mm 4 mps 753 mmHg 86%
    10:00 +3°C° 0.1 mm 4 mps 753 mmHg 83%
    11:00 +3°C° 0 mm 4 mps 753 mmHg 81%
    12:00 +3°C° 0 mm 4 mps 753 mmHg 79%
    13:00 +3°C° 0 mm 3 mps 754 mmHg 78%
    14:00 +3°C° 0 mm 3 mps 754 mmHg 76%
    15:00 +3°C° 0 mm 3 mps 753 mmHg 74%
    16:00 +4°C° 0 mm 2 mps 753 mmHg 72%
    17:00 +4°C° 0 mm 2 mps 753 mmHg 73%
    18:00 +4°C° 0 mm 2 mps 753 mmHg 74%
    19:00 +3°C° 0 mm 2 mps 754 mmHg 76%
    20:00 +2°C° 0 mm 3 mps 753 mmHg 77%
    21:00 +1°C° 0 mm 3 mps 753 mmHg 78%
    22:00 +1°C° 0 mm 3 mps 752 mmHg 79%
    23:00 0°C° 0 mm 4 mps 752 mmHg 78%

    Day after tomorrow, 21 February, Friday

    Time Temperature Precipitation Wind Pressure Humidity
    00:00 0°C° 0 mm 5 mps 752 mmHg 76%
    01:00 0°C° 0 mm 5 mps 751 mmHg 75%
    02:00 -1°C° 0 mm 6 mps 751 mmHg 74%
    03:00 -1°C° 0 mm 6 mps 750 mmHg 74%
    04:00 -1°C° 0 mm 7 mps 749 mmHg 73%
    05:00 -1°C° 0.1 mm 7 mps 749 mmHg 79%
    06:00 -1°C° 0.1 mm 7 mps 748 mmHg 84%
    07:00 0°C° 0.1 mm 7 mps 748 mmHg 89%
    14:00 +2°C° 0 mm 8 mps 752 mmHg 68%
    15:00 +2°C° 0 mm 8 mps 753 mmHg 67%
    16:00 +3°C° 0 mm 7 mps 754 mmHg 66%
    17:00 +2°C° 0 mm 7 mps 754 mmHg 69%
    18:00 +2°C° 0 mm 6 mps 755 mmHg 73%
    19:00 +1°C° 0 mm 5 mps 756 mmHg 76%
    20:00 +1°C° 0 mm 5 mps 756 mmHg 78%
    21:00 +1°C° 0 mm 5 mps 757 mmHg 79%
    22:00 0°C° 0 mm 5 mps 757 mmHg 81%
    23:00 0°C° 0 mm 5 mps 757 mmHg 82%

    22 February, Saturday

    Time Temperature Precipitation Wind Pressure Humidity
    00:00 0°C° 0 mm 4 mps 758 mmHg 84%
    01:00 -1°C° 0 mm 4 mps 758 mmHg 85%
    02:00 -1°C° 0 mm 4 mps 758 mmHg 86%
    03:00 -1°C° 0 mm 4 mps 758 mmHg 87%
    04:00 -1°C° 0 mm 4 mps 758 mmHg 88%
    05:00 -1°C° 0 mm 4 mps 757 mmHg 86%
    06:00 -1°C° 0 mm 5 mps 757 mmHg 85%
    07:00 -1°C° 0 mm 5 mps 757 mmHg 83%
    08:00 -1°C° 0 mm 6 mps 757 mmHg 79%
    09:00 +1°C° 0 mm 6 mps 757 mmHg 74%
    10:00 +2°C° 0 mm 7 mps 756 mmHg 70%
    11:00 +2°C° 0 mm 8 mps 756 mmHg 65%
    12:00 +4°C° 0 mm 8 mps 755 mmHg 60%
    13:00 +5°C° 0 mm 8 mps 755 mmHg 55%
    14:00 +5°C° 0 mm 8 mps 754 mmHg 56%
    15:00 +5°C° 0 mm 7 mps 753 mmHg 57%
    16:00 +5°C° 0 mm 7 mps 752 mmHg 58%
    17:00 +5°C° 0 mm 7 mps 752 mmHg 57%
    18:00 +5°C° 0 mm 8 mps 752 mmHg 57%
    19:00 +5°C° 0 mm 8 mps 752 mmHg 57%
    20:00 +5°C° 0 mm 8 mps 751 mmHg 58%
    21:00 +5°C° 0 mm 8 mps 751 mmHg 58%
    22:00 +5°C° 0 mm 8 mps 750 mmHg 58%
    23:00 +5°C° 0 mm 9 mps 750 mmHg 59%

    23 February, Sunday

    Time Temperature Precipitation Wind Pressure Humidity
    00:00 +6°C° 0 mm 9 mps 750 mmHg 60%
    01:00 +6°C° 0 mm 10 mps 749 mmHg 61%
    02:00 +6°C° 0.1 mm 10 mps 749 mmHg 66%
    03:00 +6°C° 0.1 mm 9 mps 749 mmHg 71%
    04:00 +6°C° 0.1 mm 9 mps 748 mmHg 76%
    05:00 +5°C° 0.5 mm 9 mps 749 mmHg 75%
    06:00 +5°C° 0.5 mm 8 mps 749 mmHg 74%
    07:00 +4°C° 0.5 mm 8 mps 749 mmHg 73%
    08:00 +4°C° 0 mm 8 mps 749 mmHg 71%
    09:00 +4°C° 0 mm 8 mps 749 mmHg 70%
    10:00 +4°C° 0 mm 8 mps 749 mmHg 69%
    11:00 +5°C° 0 mm 8 mps 749 mmHg 70%
    12:00 +5°C° 0 mm 8 mps 749 mmHg 71%
    13:00 +5°C° 0 mm 8 mps 749 mmHg 72%
    14:00 +5°C° 0.2 mm 7 mps 748 mmHg 77%
    15:00 +4°C° 0.2 mm 6 mps 747 mmHg 81%
    16:00 +5°C° 0.2 mm 5 mps 746 mmHg 85%
    17:00 +5°C° 1 mm 4 mps 745 mmHg 88%
    18:00 +5°C° 1 mm 4 mps 743 mmHg 91%
    19:00 +5°C° 1 mm 3 mps 742 mmHg 94%
    20:00 +5°C° 1.7 mm 6 mps 741 mmHg 91%
    21:00 +7°C° 1.7 mm 8 mps 739 mmHg 88%
    22:00 +8°C° 1.7 mm 10 mps 738 mmHg 85%
    23:00 +6°C° 0.7 mm 10 mps 738 mmHg 85%

    24 February, Monday

    Time Temperature Precipitation Wind Pressure Humidity
    00:00 +5°C° 0.7 mm 10 mps 738 mmHg 84%
    01:00 +3°C° 0.7 mm 10 mps 738 mmHg 84%
    02:00 +2°C° 0.2 mm 10 mps 740 mmHg 81%
    03:00 +1°C° 0.2 mm 10 mps 741 mmHg 79%
    04:00 +1°C° 0.2 mm 10 mps 743 mmHg 77%
    05:00 -1°C° 0.1 mm 11 mps 744 mmHg 76%
    06:00 -1°C° 0.1 mm 11 mps 745 mmHg 75%
    07:00 -1°C° 0.1 mm 12 mps 746 mmHg 73%
    08:00 -1°C° 0 mm 12 mps 747 mmHg 72%
    09:00 0°C° 0 mm 12 mps 748 mmHg 70%
    10:00 0°C° 0 mm 12 mps 749 mmHg 68%
    11:00 +2°C° 0 mm 12 mps 750 mmHg 64%
    12:00 +2°C° 0 mm 11 mps 751 mmHg 61%
    13:00 +3°C° 0 mm 10 mps 752 mmHg 58%
    14:00 +3°C° 0 mm 10 mps 752 mmHg 56%
    15:00 +3°C° 0 mm 9 mps 753 mmHg 54%
    16:00 +4°C° 0 mm 8 mps 753 mmHg 52%
    17:00 +3°C° 0 mm 7 mps 754 mmHg 57%
    18:00 +2°C° 0 mm 7 mps 754 mmHg 62%
    19:00 +2°C° 0 mm 6 mps 755 mmHg 67%
    20:00 +1°C° 0 mm 5 mps 755 mmHg 71%
    21:00 +1°C° 0 mm 5 mps 756 mmHg 74%
    22:00 0°C° 0 mm 4 mps 756 mmHg 77%
    23:00 0°C° 0 mm 4 mps 756 mmHg 80%
    Show more